Regional Weather Roundup
Issued by NWS Wakefield, VA

Home | Current Version | Previous Version | Text Only | Print | Product List | Glossary Off
Versions: 1 2 3 4 5 6 7 8 9 10 11 12 13 14 15 16 17 18 19 20 21 22 23 24 25 26 27 28 29 30 31 32 33 34 35 36 37 38 39 40 41 42 43 44 45 46 47 48 49 50

000
ASUS41 KAKQ 220910
RWRAKQ

REGIONAL WEATHER ROUNDUP
NATIONAL WEATHER SERVICE WAKEFIELD VA
500 AM EDT MON SEP 22 2014

Note: "fair" indicates few or no clouds below 12,000 feet with no
significant weather and/or obstructions to visibility. * = Denotes
station may not report precipitation (e.g., rain,snow,etc.),
thunder or fog.

VAZ042-051-052>054-056-221000-
NORTHERN VIRGINIA

CITY           SKY/WX    TMP DP  RH WIND       PRES   REMARKS
WASH NATIONAL  PTCLDY    68  46  45 W12       29.86R
DULLES         CLEAR     59  47  64 W6        29.87R
FORT BELVOIR   CLEAR     65  48  54 W6        29.87R
QUANTICO       CLEAR     66  46  48 N13G21    29.89R
FREDERICKSBRG* CLEAR     64  51  63 W3        29.87R
STAFFORD*      CLEAR     56  50  79 NW7       29.92R
WARRENTON      CLEAR     62  53  72 NW8       29.89R
CULPEPER*      CLEAR     63  48  59 NW6       29.90R
MANASSAS*      CLEAR     61  50  67 W3        29.88R
LEESBURG*      CLEAR     63  52  67 NW8       29.88R
WINCHESTER     MOCLDY    61  46  59 NW6       29.89R
FRONT ROYAL*   CLOUDY    63  46  55 NW8G16    29.89R
LURAY*         CLOUDY    64  46  52 W6        29.91R
$$

VAZ048-049-060>072-079>083-221000-
CENTRAL AND SOUTH CENTRAL VIRGINIA...AND NORTH CENTRAL NORTH CAROLINA

CITY           SKY/WX    TMP DP  RH WIND       PRES   REMARKS
RICHMOND       MOCLDY    72  45  37 NW9       29.87R
CHESTERFIELD*  PTSUNNY  N/A N/A N/A NW10      29.89R
PETERSBURG*    CLOUDY    70  51  50 NW5       29.89R
HANOVER        CLEAR     66  47  50 W7        29.89R
TAPPAHANNOCK*  CLEAR     62  52  69 CALM      29.87R
CHARLOTTSVILLE CLEAR     63  45  51 W5        29.91R
ORANGE*        CLEAR     63  45  51 W6        29.92R
LOUISA*        CLEAR     61  48  63 W5        29.89R
FARMVILLE*     CLEAR     63  46  55 CALM      29.89R
CREWE*         MOSUNNY   66  48  51 NW5       29.90R
FORT PICKETT*  CLOUDY    67  51  58 NW5       29.90R
LUNENBURG*     MOSUNNY   68  53  59 CALM      29.91R
SOUTH HILL*    MOCLDY    70  55  60 CALM      29.95R
LAWRENCEVILLE* MOSUNNY   66  60  79 CALM      29.89R
ROANOKE RAPIDS CLOUDY    68  61  77 CALM      29.89R
RALEIGH        MOCLDY    68  60  75 CALM      29.92R
$$

VAZ088>098-221000-
SOUTHEAST VIRGINIA

CITY           SKY/WX    TMP DP  RH WIND       PRES   REMARKS
NORFOLK        MOCLDY    73  64  73 CALM      29.85R
VIRGINIA BEACH MOCLDY    73  64  73 W9        29.84R
NORFOLK NAVAL  PTCLDY    74  65  73 NW8       29.87R
WEST POINT*    MOCLDY    66  60  81 CALM      29.87R
NEWPORT NEWS   CLEAR     73  64  73 NW7       29.85R
LANGLEY AFB    CLEAR     71  66  84 NW6       29.85R
FORT EUSTIS    CLEAR     72  72 100 NW5       29.84R
WILLIAMSBURG*  PTCLDY    70  66  88 N3        29.87R
HR EXEC AP*    MOSUNNY   70  63  78 W5        29.87R
FRANKLIN*      CLEAR     66  63  88 NW3       29.86S
WAKEFIELD      CLEAR     68  62  81 CALM      29.86R
$$

VAZ020-022-025-037-045-221000-
WEST CENTRAL AND SOUTHWEST VIRGINIA

CITY           SKY/WX    TMP DP  RH WIND       PRES   REMARKS
STAUNTON*      CLOUDY    60  45  58 SW3       29.95R
HOT SPRINGS VA CLOUDY    47  33  58 W18       29.99R
LYNCHBURG      CLEAR     59  49  69 W6        29.95R
DANVILLE       CLEAR     60  54  80 SW5       29.95R
SOUTH BOSTON*  NOT AVBL
MARTINSVILLE   CLEAR     55  55  99 CALM      29.99R
ROANOKE        PTCLDY    57  47  69 NW7       29.99R
BLACKSBURG     CLEAR     55  52  88 NW5       30.02R
DUBLIN*        PTCLDY    55  49  81 W5        30.02R
MARION*        PTCLDY    54  47  76 W7        30.06R
HILLSVILLE*    CLEAR     53  47  82 W7        30.02R
RICHLANDS*     SUNNY     55  50  84 W3        30.05S
WISE*          CLEAR     52  45  76 NW3       30.09R
ABINGDON*      CLEAR     57  50  75 N5        30.05R
$$

MDZ021>025-VAZ099-100-221000-
SOUTHERN MARYLAND AND THE DELMARVA PENINSULA

CITY           SKY/WX    TMP DP  RH WIND       PRES   REMARKS
PATUXENT RIVER PTCLDY    68  47  46 NW15G26   29.85R
BAY BRIDGE APT   N/A     66  46  48 W17G28    29.83R
LEONARDTOWN    PTCLDY    64  45  48 W6        29.86R
DOVER          CLEAR     65  54  69 W10       29.79R
GEORGETOWN     CLEAR     68  50  52 VRB6      29.83R
EASTON         CLEAR     68  51  55 N10       29.87R
CAMBRIDGE      CLEAR     70  48  46 W7        29.83R
SALISBURY      PTCLDY    70  51  51 NW8       29.82R
OCEAN CITY     CLEAR     68  52  56 NW6       29.81R
WALLOPS ISLAND CLEAR     70  56  61 N8        29.83R
ACCOMACK*      PTCLDY    72  50  46 NW10      29.84R
$$

NCZ012>017-030>032-221000-
EASTERN NORTH CAROLINA

CITY           SKY/WX    TMP DP  RH WIND       PRES   REMARKS
ELIZABETH CITY CLOUDY    71  66  84 W8        29.86R
AHOSKIE*       CLOUDY    68  65  90 CALM      29.88R
EDENTON*       CLOUDY    73  68  85 W5        29.87R
CURRITUCK*     CLOUDY    72  65  79 W5        29.86S
KILL DEVIL HLS CLOUDY    73  66  78 W6        29.85R
MANTEO         CLOUDY    73  66  80 W8        29.87R
CAPE HATTERAS  PTCLDY    75  73  93 W12       29.87R
TARBORO*       PTSUNNY   68  66  93 CALM      29.89R
GOLDSBORO      MOCLDY    70  70  98 CALM      29.88R
WASHINGTON     PTCLDY    68  65  90 CALM      29.88R
GREENVILLE     CLEAR     72  66  83 W5        29.90S
NEW BERN       CLOUDY    73  65  75 W5        29.90R
WILMINGTON     PTCLDY    73  64  73 SW8       29.90R
$$

VAZ048-221000-
ELSEWHERE

CITY           SKY/WX    TMP DP  RH WIND       PRES   REMARKS
HARRISBURG PA  PTCLDY    62  49  62 NW16      29.81R
BALTIMORE      CLEAR     63  48  58 W12       29.83R
ANNAPOLIS      CLEAR     65  48  54 W8G17     29.83R
ANDREWS AFB    CLEAR     65  48  53 W13       29.85R
WILMINGTON DE  CLEAR     64  51  62 W12       29.80R
PHILADELPHIA   PTCLDY    65  56  72 W12       29.77R
WILDWOOD NJ*   PTCLDY    70  54  56 W14G20    29.80R
ATLANTIC CITY  CLEAR     65  60  84 W8        29.77R
HENDERSON NC   PTCLDY    67  52  59 NW7       29.92R
GREENSBORO     PTCLDY    64  50  60 NW5       29.96R
ROCKY MOUNT    CLOUDY    70  67  90 NW5       29.89R
FAYETTEVILLE   CLOUDY    73  66  78 W6        29.90R
CHARLOTTE      MOCLDY    68  53  58 N7        29.96R
$$

VAZ100-221000-
MARINE

STATION/POSITION TIME  TEMP    WIND        PRES    WAVE   SWELL
                       AIR SEA DIR/SP/G            HT/PER HT/PER
                 (UTC) (F)     (DEG/KT/KT) (MB)    (FT/S) (FT/S)
44066 TX TWR #4  0900   71 70  280/ 17/ 21 1005.0R   9/ 9   8/ 9
CAPE MAY NJ      0900   71 75  290/ 12/ 17 1008.1R
LEWES DE         0900   69 72  280/ 14/ 16 1008.9R
15NM E FENWICK I 0900   73 72              1008.4R   4/ 8
OCEAN-CITY-INLET 0900          320/ 10/ 13   N/A
WACHAPREAGUE VA  0900   71 74  300/  2/  4 1010.2R
THOMAS POINT MD  0900   67 74  290/ 14/ 16 1011.2R
GOOSES REEF MD   0900   70     310/ 19/ 23 1010.5R
COVE POINT MD    0900   69     330/ 17/ 24 1010.3R
SOLOMONS ISLAND  0900      76                N/A
BISHOPS HEAD MD  0900   70 72  320/ 13/ 18 1010.0R
PINEY POINT MD   0900          330/ 17/ 19   N/A
POTOMAC MD       0900   73     330/ 17/ 19 1009.9R
CAMBRIDGE MD     0900   70 74  290/ 14/ 21 1009.9R
LEWISETTA VA     0900          320/ 10/ 13   N/A
RAPPAHANNOCK LGT 0900          310/ 14/ 16 1010.8R
STINGRAY PT      0900   74     330/ 16/ 19   N/A
YORK RVR RNG VA  0900   74     340/ 16/ 20 1010.0R
YORKTOWN VA      0900   73 76  330/ 11/ 13 1010.4R
JAMESTOWN VA     0900   72     340/  8/ 10   N/A
DOMINION TERM VA 0900   74     320/ 14/ 18 1010.5R
KIPTOPEKE VA     0900      78  350/ 12/ 15   N/A
CHES BAY BRIDGE  0900   74 75  290/ 14/ 15 1010.0R
CAPE HENRY VA    0900   74     290/ 10/ 14 1009.2R
CHESAPEAKE LGHT  0800   75     280/ 17/ 19 1009.9R
WILLOUBY STN VA  0900          330/  9/ 10   N/A
S CRANEY ISL VA  0900          270/  5/  9 1010.4R
CAPE HENRY BUOY  0900      75                N/A     4/ 9   2/11
1ST LANDING BUOY 0900   75     300/ 14/ 16 1010.1R
CAPE CHARLES BUO 0900      74                N/A     3/10   3/10
OFFSHORE WE BUOY 0900      74                N/A     5/ 9   3/ 9
64NM E OF VA BCH 0900   75 76  250/ 14/ 16 1009.8R   6/ 9   5/ 9
DUCK PIER NC     0900   75 75  280/ 12/ 16 1010.2R
44100 DUCK FRF   0900      74                N/A     4/ 9   2/11
44056 DUCK FRF   0900                        N/A     3/11   2/11
OREGON INLET NC  0900   74 76  250/  8/ 10 1011.3R
DIAMOND SHLS NC  0900   81     240/ 21/ 25 1011.3R   7/ 6   3/16
CAPE LOOKOUT NC  0800   78     240/ 11/ 14 1011.7R
$$



USA.gov is the U.S. government's official web portal to all federal, state and local government web resources and services.